Location: Czekanka
(50.4925°N, 19.2643°E)
Time: 01:23:33
(UTC+00:00)

CZ-2C R/B - Pass Details

Date: 27 September 2024
Orbit: 703 x 903 km, 98.2° (Epoch: 09 October)

Event Time Altitude Azimuth Distance (km) Brightness Sun altitude
Rises 02:22:02 0° 6° (N) 3,541 6.9 -21.7°
Reaches altitude 10° 02:25:03 10° 351° (N) 2,593 5.9 -21.3°
Maximum altitude 02:29:09 21° 305° (NW) 1,925 4.8 -20.7°
Enters shadow 02:29:31 20° 300° (WNW) 1,929 4.7 -20.6°
